OBJECT E, 100784

Orbit data source: Space-Track

You're viewing an uncataloged RSO

Recently launched and/or uncataloged RSOs may have evolving metadata. Metadata may include the following, but is not limited to: Owner, Manufacturer, Bus, Motor, and Mission.

OBJECT E, 100784 is a Chinese satellite in SSO that was launched on Mon, 21 Sep 2026 UTC launched from the Jiuquan Satellite Launch Center, China (JSC). Unknown objects in Earth's orbit typically refer to objects detected orbiting the Earth but have not yet been identified or cataloged. These objects could be anything from previously untracked satellites, spent rocket stages, debris from satellite collisions, or even natural meteoroids temporarily captured by Earth's gravity.

Loading next visibility...
Identifier
100784, 2026-220E
Orbit
SSO
Country
Flag of CNCN / PRC
Related business
None
Manufacturer
Unknown
Mission
Operational spacecraft
Bus & Motor
Unknown
Mass
Unknown
Launch date (UTC)
Icon of a cake. It is the launch day of the satellite!2026-09-21 (11 hours ago)
Launch vehicle
Unknown
Launch site
Jiuquan Satellite Launch Center, China (JSC)
Object type
Unknown
Shape & HBR
Unknown
Radar Cross Section
RCS unknown

Expand to show TLE details & history
Last TLE update: 8 hours ago

TLE from 8 hours ago
0 OBJECT E
1 A0784U 26220E   26264.60348859  .00004341  00000-0  26402-3 0  9993
2 A0784  97.5509 338.0555 0014023 276.5482  83.4151 15.10895930   226
Epoch: 2026-09-21T14:29Z
TLE epoch observation values (Epoch: 2026-09-21T14:29:01.414Z)
Latitude
-0.00003°
Longitude
120.31867°
Altitude
535.442 km
Speed
7.595 km/s
True Right ascension
22h 32m 13s
True Declination
0° 00' 00"
Sunlit
Object was in full shadow at epoch
Visualization orbit readout
Latitude
Unknown
Longitude
Unknown
Altitude
Unknown
Speed
Unknown
Apparent Right ascension
Unknown
Apparent Declination
Unknown
Sunlit
N/A
Visualization observer readout
Local Sidereal Time
15:36:40
Azimuth
Unknown
Elevation
Unknown
Doppler factor
Unknown
Orbital elements
Apogee altitude
540.138 km
Perigee altitude
520.763 km
Semi-major axis
6,908.588 km
Eccentricity
0.0014
Inclination
97.5509°
RAAN
338.0555°
Arg. of periapsis
276.5482°
True anomaly
83.57476°
Mean anomaly
83.4151°
Eccentric anomaly
83.49493°
Mean motion
3.77972 °/min
Orbital period
95.25 mins
BSTAR
0.00026402
Loading maneuver chart data...
Computing Atmospheric mass density...
Loading historical data...
Loading historical data...
Loading historical data...
Loading historical data...
Loading historical data...
Loading historical data...
Loading historical data...

Documentation

Showing up to 5 results
|